Location: Les Fringants
(43.8654°N, 5.4567°E)
Time: 01:49:44
(UTC+00:00)

Daily predictions for brighter satellites

Satellite Brightness Start Highest point End
(mag) Time Altitude Azimuth Time Altitude Azimuth Time Altitude Azimuth
Cosmos 1464 Rocket 3.9 00:08:47 81° ESE 00:08:50 81° E 00:15:06 10° N
Cosmos 2333 4.5 00:05:16 10° NNW 00:10:14 62° WNW 00:10:14 62° WNW
Lacrosse 4 Rocket 2.9 00:13:01 36° N 00:13:01 36° N 00:15:44 10° NNE
Cosmos 2219 Rocket 2.2 00:05:52 10° NNW 00:11:13 76° NNE 00:11:13 76° NNE
Cosmos 1354 Rocket 4.3 00:16:38 65° NE 00:16:38 65° NE 00:21:13 10° NNE
Cosmos 968 Rocket 4.0 00:19:13 53° NW 00:19:13 53° NW 00:23:39 10° NNE
Cosmos 2322 Rocket 4.2 00:15:36 10° WNW 00:17:43 16° W 00:17:43 16° W
COSMOS 2428 2.7 00:23:58 10° NNW 00:29:11 73° NW 00:29:11 73° NW
SL-16 R/B 3.5 00:28:37 29° ESE 00:31:07 41° ENE 00:36:54 10° N
Nadezhda 4 Rocket 3.8 00:28:35 10° N 00:34:56 87° E 00:35:18 80° SSE
Cosmos 2360 Rocket 3.9 00:30:38 10° NW 00:33:24 21° WNW 00:33:24 21° WNW
Cosmos 2034 Rocket 3.8 00:35:41 82° SSW 00:35:58 88° W 00:42:18 10° N
CZ-2D R/B 3.3 00:32:50 10° NNE 00:37:48 33° E 00:38:05 33° ESE
Okean 2 Rocket 3.9 00:41:46 51° NNE 00:41:46 51° NNE 00:45:10 10° N
GEOS 3 Rocket 3.6 00:37:30 10° NE 00:42:46 84° ENE 00:42:46 84° ENE
Cosmos 2297 Rocket 2.9 00:45:36 42° ESE 00:45:36 42° ESE 00:50:50 10° NE
Cosmos 2219 3.6 00:45:50 49° ESE 00:45:50 49° ESE 00:51:06 10° NE
ADEOS II 4.2 00:42:55 10° NE 00:46:03 16° E 00:47:27 14° ESE
Cosmos 1092 Rocket 4.1 00:40:48 10° N 00:47:02 68° E 00:48:01 58° SE
Cosmos 1777 Rocket 4.3 00:49:00 58° E 00:49:00 58° E 00:53:53 10° NNE
Cosmos 1980 4.0 00:43:08 10° NNW 00:48:46 61° ENE 00:49:51 51° ESE
Cosmos 2333 Rocket 2.9 00:43:52 10° NW 00:48:11 41° WNW 00:48:11 41° WNW
Helios 1B rocket 3.8 00:46:07 10° N 00:48:49 35° NNW 00:48:49 35° NNW
Cosmos 44 Rocket 3.7 00:51:07 10° NW 00:55:08 58° NW 00:55:08 58° NW
Cosmos 1300 Rocket 4.3 00:57:53 49° N 00:57:53 49° N 01:01:07 10° N
Cosmos 2237 Rocket 2.4 00:53:11 10° NNW 00:58:50 68° ENE 00:59:51 56° ESE
Okean 1 Rocket 4.1 01:01:02 38° ENE 01:01:02 38° ENE 01:04:41 10° NNE
ATLAS 3B CENTAUR R/B 4.4 01:13:44 31° SSE 01:13:44 31° SSE 01:19:17 10° ESE
Cosmos 2151 Rocket 4.0 01:12:29 56° NNW 01:12:29 56° NNW 01:16:06 10° N
Meteor 1-12 Rocket 4.3 01:11:28 63° WSW 01:11:57 66° WNW 01:17:56 10° N
Timation 2 Rocket 3.9 01:14:34 60° WSW 01:15:30 69° WNW 01:21:34 10° NNE
In-Cosmos 22 4.1 01:13:33 10° NNW 01:19:08 70° W 01:19:15 70° WSW
Meteor 1-15 Rocket 4.1 01:22:53 67° SSE 01:23:40 82° E 01:29:19 10° NNE
Cosmos 1805 4.0 01:24:26 49° NE 01:24:26 49° NE 01:27:36 10° NNE
SJ 16-02 2.5 01:25:10 34° ESE 01:25:20 34° ESE 01:29:20 10° NE
ERBS 4.3 01:24:48 10° NNW 01:27:43 28° NNE 01:30:37 10° E
DNEPR-1 R/B 4.5 01:22:05 10° NNW 01:27:51 58° NE 01:31:05 20° ESE
Meteor 2-13 Rocket 4.4 01:27:21 10° NNW 01:33:22 61° W 01:34:11 56° SW
Cosmos 2227 Rocket 2.1 01:33:34 65° SSW 01:34:27 88° ESE 01:40:10 10° NNE
Cosmos 1538 Rocket 3.8 01:30:40 10° NNW 01:35:49 69° WSW 01:35:51 69° WSW
MOZ.5/SAFIR/RUBIN 5/SL-8 4.4 01:37:00 43° WNW 01:37:00 43° WNW 01:40:52 10° NNW
Resurs 1-4 Rocket 2.0 01:33:26 10° N 01:38:43 73° WNW 01:39:24 64° SW
Cosmos 1674 3.6 01:37:13 10° NNW 01:39:47 41° NNW 01:39:47 41° NNW
Cosmos 1733 3.5 01:42:54 62° ENE 01:42:54 62° ENE 01:46:22 10° NNE
NOSS 0 Rocket 4.5 01:39:14 10° NW 01:44:40 38° W 01:44:40 38° W
Cosmos 2279 Rocket 3.9 01:44:46 49° S 01:46:38 90° S 01:52:52 10° N
Cosmos 1461 4.0 01:47:03 34° SE 01:47:22 34° ESE 01:51:26 10° NE
COBE Rocket 3.9 01:47:33 49° SE 01:48:45 74° ENE 01:53:23 10° N
USA 215 3.2 01:42:39 10° NE 01:49:13 76° SE 01:51:29 44° SW
Cosmos 2026 Rocket 4.1 01:44:09 10° NNW 01:50:02 54° W 01:51:09 47° SW
Cosmos 1634 Rocket 4.3 01:50:26 44° WSW 01:51:52 52° WNW 01:57:57 10° N
Cosmos 2219 Rocket 4.2 01:51:44 10° WNW 01:52:54 13° WNW 01:52:54 13° WNW
SL-24 R/B 4.3 01:53:41 51° SSE 01:54:54 83° E 01:59:53 10° N
Cosmos 2082 3.7 01:53:29 49° S 01:55:01 75° ESE 02:00:38 10° NNE
Cosmos 1340 Rocket 4.5 01:54:19 23° SE 01:55:38 28° E 01:59:04 10° NNE
Cosmos 2344 4.4 01:46:48 10° NW 01:56:39 71° WSW 02:10:24 10° SSE
SL-4 R/B 2.7 01:58:02 18° NW 02:00:18 43° NNE 02:03:34 10° E
Meteor 1-24 Rocket 3.5 02:00:58 10° N 02:06:29 90° WSW 02:08:55 34° S
SL-16 R/B 2.2 02:01:45 10° NNW 02:07:29 87° ENE 02:12:33 13° SSE
CBERS-1 3.9 02:02:25 10° NNE 02:07:35 87° WNW 02:09:09 46° SSW
Cosmos 1937 Rocket 4.4 02:06:56 26° SSE 02:09:28 43° ESE 02:14:31 10° NNE
Meteor 2-5 Rocket 3.7 02:04:35 10° NNW 02:10:11 64° W 02:11:59 41° SSW
Cosmos 1898 Rocket 3.7 02:11:41 36° S 02:13:45 65° ESE 02:18:57 10° NNE
SL-16 R/B 3.1 02:13:42 34° WSW 02:14:44 36° W 02:20:27 10° NNW
ARIANE 5 R/B 3.2 02:09:56 10° NNE 02:15:03 52° E 02:18:02 24° SSE
NPP 4.3 02:11:47 10° N 02:16:50 42° WNW 02:18:22 34° WSW
CZ-2D R/B 3.0 02:12:51 10° N 02:17:49 36° WNW 02:19:24 30° W
IDEFIX/ARIANE 42P 3.8 02:13:06 10° NNE 02:17:53 36° E 02:21:55 14° SSE
Cosmos 1680 Rocket 3.4 02:13:54 10° NNW 02:19:10 85° WSW 02:22:58 19° SSE
NOSS 3-1 (C) 3.5 02:17:24 34° S 02:19:41 59° ESE 02:25:45 10° NE
USA 267 3.7 02:14:26 10° ESE 02:20:52 63° NNE 02:27:20 10° NW
Cosmos 1544 Rocket 4.0 02:20:01 30° SSE 02:22:02 61° E 02:26:28 10° NNE
Cosmos 990 Rocket 3.9 02:23:20 37° SSW 02:25:26 89° ESE 02:30:39 10° NNE
Cosmos 1607 3.9 02:19:44 10° NW 02:26:12 76° WSW 02:32:38 10° SSE
ADEOS II 2.1 02:21:00 10° N 02:26:14 69° WNW 02:28:23 36° SW
Cosmos 1766 4.3 02:26:33 29° WNW 02:26:33 29° WNW 02:30:00 10° NNW
Cosmos 2263 Rocket 3.5 02:23:53 15° SSE 02:27:55 34° ESE 02:32:52 10° NE
Meteor 1-22 Rocket 4.2 02:27:12 37° SW 02:29:04 57° WNW 02:34:19 10° N
Cosmos 2297 Rocket 3.3 02:27:24 24° W 02:29:41 32° NW 02:34:43 10° N
IRS-1D 3.8 02:25:08 10° N 02:30:02 53° WNW 02:31:54 35° SW
Cosmos 2219 4.5 02:27:45 21° W 02:30:05 28° NW 02:34:52 10° N
Okean 1-7 Rocket 3.5 02:28:38 10° NNW 02:33:02 74° W 02:35:04 31° S
ERS-1 4.5 02:29:10 10° NNE 02:34:10 78° ESE 02:36:59 26° S
IRS-1C 4.1 02:30:30 10° NNE 02:35:52 80° WNW 02:38:42 29° SSW
Meteor 1-28 Rocket 3.1 02:36:22 30° S 02:38:08 83° WSW 02:41:57 10° NNW
Cosmos 1626 2.9 02:35:39 10° NNW 02:38:56 34° W 02:38:56 34° W
Cosmos 2266 Rocket 4.0 02:33:43 10° NNW 02:40:04 70° W 02:45:02 17° S
Cosmos 1655 Rocket 4.2 02:34:49 10° NNW 02:40:52 52° W 02:44:28 24° SSW
Cosmos 2237 Rocket 3.7 02:38:35 10° WNW 02:41:36 18° W 02:41:36 18° W
Cosmos 1470 2.8 02:41:43 39° SW 02:42:58 64° W 02:46:57 10° N
CZ-4B R/B 4.2 02:38:55 10° N 02:43:12 34° WNW 02:44:50 26° WSW
SL-08 R/B 3.4 02:43:56 19° S 02:47:25 64° WSW 02:52:22 10° NNW
USA 229 DEB 3.6 02:48:34 24° SSW 02:52:47 86° SE 02:59:40 10° NE
USA 229 3.6 02:48:39 24° SSW 02:52:52 85° ESE 02:59:44 10° NE
Cosmos 2098 Rocket 3.8 02:50:19 10° NNW 02:55:03 50° W 02:59:34 16° SSW
NOSS 3 (A) 4.2 02:55:49 51° SW 02:56:22 80° NW 02:59:13 10° NE
Cosmos 158 Rocket 4.5 02:51:55 10° NW 02:56:55 40° WSW 03:00:33 17° SSW
NOSS 2-3 (C) 3.8 03:01:07 22° SSW 03:03:46 70° ESE 03:08:37 10° NE
NOSS 3-1 (A) 3.3 03:00:07 20° SSW 03:03:57 75° ESE 03:10:12 10° NE
SJ 16-02 2.8 03:02:10 19° W 03:03:58 24° WNW 03:07:37 10° N
ERBS 2.9 03:01:01 10° WNW 03:04:00 32° SW 03:06:58 10° SSE
Meteor 2-14 Rocket 4.4 02:58:49 10° N 03:04:54 87° W 03:10:58 10° S
CSL-04 DEB 4.2 03:05:03 10° SSE 03:08:57 85° WSW 03:12:55 10° NNW
Cosmos 1455 Rocket 4.2 03:11:32 20° WSW 03:13:27 27° WNW 03:17:16 10° NNW
MSX 3.9 03:08:14 10° NNE 03:14:01 80° ESE 03:19:47 10° SSW
Cosmos 1809 Rocket 4.5 03:08:08 10° NNW 03:14:06 60° W 03:20:06 10° S
Cosmos 1943 3.5 03:08:38 10° NNW 03:14:16 71° ENE 03:19:52 10° SSE
Cosmos 1626 Rocket 3.6 03:11:06 10° NNW 03:15:21 56° W 03:19:33 10° S
Cosmos 1758 4.2 03:13:24 21° SW 03:15:22 33° WNW 03:19:04 10° N
Resurs 1-4 Rocket 4.2 03:16:07 10° NW 03:17:36 11° NW 03:19:05 10° WNW
Spot 4 Rocket 4.2 03:13:28 10° N 03:18:34 61° WNW 03:23:00 14° SSW
Meteor 1-21 Rocket 4.1 03:13:39 10° NNW 03:19:12 73° W 03:24:41 10° S
Cosmos 2227 Rocket 4.0 03:15:32 10° W 03:19:18 18° NW 03:23:05 10° N
SeaSat 1 2.6 03:17:46 10° NNE 03:22:44 73° ESE 03:27:38 10° SSW
Landsat 5 3.2 03:19:50 10° S 03:23:42 79° WSW 03:27:43 10° NNW
Cosmos 1461 4.2 03:23:26 15° WSW 03:26:30 31° NW 03:30:33 10° NNE
CZ-2C R/B 2.8 03:22:50 10° N 03:26:42 64° WNW 03:30:09 12° SSW
CZ-2D R/B 4.0 03:24:27 10° N 03:28:14 38° WNW 03:31:10 15° SW
Cosmos 2227 4.3 03:24:45 13° SSW 03:29:51 71° WNW 03:35:38 10° NNE
FALCON 9 DEB 3.0 03:27:35 10° WNW 03:31:04 80° SW 03:34:31 10° SE
ATLAS CENTAUR R/B 3.3 03:28:13 10° S 03:31:42 25° ESE 03:35:03 10° ENE
USA 215 4.1 03:25:51 10° NE 03:31:57 43° NNW 03:38:02 10° W
Cosmos 1340 Rocket 4.3 03:29:56 15° WSW 03:32:04 22° WNW 03:35:13 10° NNW
ATLAS 3B CENTAUR R/B 4.1 03:27:05 13° WSW 03:33:08 21° SSW 03:37:33 10° SSE
Cosmos 1758 Rocket 3.6 03:29:01 10° N 03:33:21 83° E 03:37:39 10° S
ERS-2 2.1 03:31:22 10° S 03:34:59 63° WSW 03:38:37 10° NNW
Cosmos 2228 3.5 03:31:54 10° S 03:36:11 63° E 03:40:32 10° NNE
Cosmos 724 4.4 03:31:10 10° NW 03:37:06 63° WSW 03:43:08 10° SSE
Cosmos 1953 3.0 03:35:03 13° SW 03:38:17 36° WNW 03:42:03 10° N
SL-4 R/B 2.3 03:36:43 10° WNW 03:39:45 31° SW 03:42:48 10° SSE
Cosmos 1726 3.2 03:38:38 13° SW 03:41:15 27° WNW 03:44:27 10° NNW
Cosmos 1908 3.2 03:39:29 10° SSW 03:43:22 69° W 03:47:17 10° N
Meteor 1-16 Rocket 4.2 03:39:12 10° SSW 03:44:29 63° WNW 03:49:57 10° N
Cosmos 2285 Rocket 4.0 03:39:59 10° SSW 03:46:18 88° WNW 03:52:38 10° NNE
H-2A R/B 2.5 03:45:36 10° SSW 03:49:25 36° W 03:53:14 10° NNW
SL-16 R/B 3.9 03:48:06 10° WNW 03:50:45 13° W 03:53:23 10° SW
Cosmos 2150 Rocket 4.0 03:46:00 10° SSW 03:51:08 78° WNW 03:56:23 10° NNE
ARIANE 5 R/B 4.0 03:49:48 10° NNW 03:53:47 23° WNW 03:57:46 10° WSW
Cosmos 1825 Rocket 3.5 03:51:36 10° NNW 03:55:56 71° W 04:00:13 10° S
IDEFIX/ARIANE 42P 3.5 03:52:51 10° N 03:57:21 30° WNW 04:01:51 10° SW
CZ-4C R/B 4.1 03:56:20 10° SSW 03:58:53 22° W 04:01:29 10° NW
Cosmos 1328 4.0 03:56:25 10° NNW 04:00:18 52° W 04:04:11 10° S
ADEOS 4.0 03:55:24 10° NNE 04:00:37 70° ESE 04:05:49 10° S
CZ-4B R/B 1.3 03:58:31 10° SSE 04:01:50 89° WSW 04:05:05 10° NNW
Cosmos 1953 Rocket 3.7 03:57:28 10° N 04:02:00 88° E 04:06:29 10° S
USA 267 3.6 03:57:54 10° SSE 04:04:02 43° SW 04:10:14 10° WNW
ADEOS II 4.2 04:03:59 10° NW 04:04:58 10° NW 04:05:56 10° WNW
